TimeMST,TemperatureF,Dew PointF,Humidity,Sea Level PressureIn,VisibilityMPH,Wind Direction,Wind SpeedMPH,Gust SpeedMPH,PrecipitationIn,Events,Conditions,WindDirDegrees,DateUTC
12:53 AM,30.0,21.9,72,30.32,10.0,SSE,4.6,-,N/A,,Mostly Cloudy,150,2011-11-29 07:53:00
1:53 AM,30.9,21.9,69,30.32,10.0,NNE,3.5,-,N/A,,Scattered Clouds,30,2011-11-29 08:53:00
2:53 AM,28.9,21.9,75,30.34,10.0,Calm,Calm,-,N/A,,Overcast,0,2011-11-29 09:53:00
3:53 AM,28.9,21.9,75,30.34,10.0,Calm,Calm,-,N/A,,Mostly Cloudy,0,2011-11-29 10:53:00
4:53 AM,26.1,19.0,75,30.38,10.0,Calm,Calm,-,N/A,,Clear,0,2011-11-29 11:53:00
5:53 AM,23.0,18.0,81,30.44,10.0,ESE,3.5,-,N/A,,Clear,120,2011-11-29 12:53:00
6:53 AM,21.0,17.1,85,30.47,10.0,Calm,Calm,-,N/A,,Clear,0,2011-11-29 13:53:00
7:53 AM,23.0,19.0,85,30.49,10.0,East,3.5,-,N/A,,Clear,100,2011-11-29 14:53:00
8:53 AM,30.0,21.9,72,30.46,10.0,NNE,4.6,-,N/A,,Clear,30,2011-11-29 15:53:00
9:53 AM,36.0,21.9,57,30.44,10.0,Calm,Calm,-,N/A,,Clear,0,2011-11-29 16:53:00
10:53 AM,42.1,19.9,41,30.40,10.0,Calm,Calm,-,N/A,,Clear,0,2011-11-29 17:53:00
11:53 AM,46.9,17.1,30,30.35,10.0,Calm,Calm,-,N/A,,Clear,0,2011-11-29 18:53:00
12:53 PM,51.1,18.0,27,30.32,10.0,Calm,Calm,-,N/A,,Clear,0,2011-11-29 19:53:00
1:53 PM,54.0,17.1,23,30.26,10.0,Calm,Calm,-,N/A,,Clear,0,2011-11-29 20:53:00
2:53 PM,55.0,17.1,23,30.26,10.0,Calm,Calm,-,N/A,,Clear,0,2011-11-29 21:53:00
3:53 PM,54.0,17.1,23,30.26,10.0,Calm,Calm,-,N/A,,Clear,0,2011-11-29 22:53:00
4:53 PM,42.1,19.9,41,30.31,10.0,SSW,6.9,-,N/A,,Clear,200,2011-11-29 23:53:00
5:53 PM,36.0,19.0,50,30.34,10.0,ESE,5.8,-,N/A,,Clear,120,2011-11-30 00:53:00
6:53 PM,30.9,19.0,61,30.38,10.0,ESE,3.5,-,N/A,,Clear,120,2011-11-30 01:53:00
7:53 PM,32.0,19.0,59,30.37,10.0,Calm,Calm,-,N/A,,Clear,0,2011-11-30 02:53:00
8:53 PM,30.0,19.0,64,30.35,10.0,Calm,Calm,-,N/A,,Clear,0,2011-11-30 03:53:00
9:53 PM,28.9,19.0,67,30.31,10.0,Calm,Calm,-,N/A,,Clear,0,2011-11-30 04:53:00
10:53 PM,28.0,19.0,69,30.28,10.0,Calm,Calm,-,N/A,,Clear,0,2011-11-30 05:53:00
11:53 PM,26.1,19.0,75,30.25,10.0,Calm,Calm,-,N/A,,Clear,0,2011-11-30 06:53:00